Back to catalog

THORAD AGENA D DEB

AlivePO
NORAD 42552·DEBRIS·🇺🇸 United States

Launched Apr 8, 1970 from Vandenberg Space Force Base

Loading…

Next Passes (next 24 hours)

TLE

FreshSource: Space-Track

Epoch: Sep 11, 2026, 17:55 UTC

1 42552U 70025TJ  26254.74719601  .00000869  00000-0  14306-2 0  9995
2 42552  99.3904 185.3624 0177049  55.3511 306.4170 13.43933146625417

Track THORAD AGENA D DEB in real time with AllMySat

Download on the App Store